Weather History for PARC - October, 2013

Change the Weather History Date:

Sunday, October 13, 2013

  Actual Average Record
Temperature  
Mean Temperature 24 °F -  
Max Temperature 33 °F 20 °F 36 °F (1962)
Min Temperature 15 °F -3 °F -26 °F (1970)
Degree Days  
Heating Degree Days 41    
Moisture  
Dew Point 21 °F    
Average Humidity 87    
Maximum Humidity 100    
Minimum Humidity 70    
Precipitation  
Precipitation 0.03 in - - ()
Sea Level Pressure  
Sea Level Pressure 29.66 in    
Wind  
Wind Speed 6 mph (ENE)    
Max Wind Speed 13 mph    
Max Gust Speed -    
Visibility 9 miles    
Events      
Averages and records for this station are not official NWS values.
T = Trace of Precipitation, MM = Missing Value Source: NWS Daily Summary

Daily Weather History Graph

Daily Weather History Graph

Search for Another Location

Airport or City:

Trip Planner

Search our weather history database for the weather conditions in past years. The results will help you decide how hot, cold, wet, or windy it might be!

Date:

Astronomy

Oct. 13, 2013 Rise Set
Actual Time 8:40 AM AKDT 6:14 PM AKDT
Civil Twilight 7:43 AM AKDT 7:11 PM AKDT
Nautical Twilight 6:38 AM AKDT 8:15 PM AKDT
Astronomical Twilight 5:31 AM AKDT 9:22 PM AKDT
Moon 5:18 PM AKDT (10/13) 12:29 AM AKDT (10/13)
Length of Visible Light 11h 27m
Length of Day
9h 33m
Waxing Gibbous, 71% of the Moon is Illuminated
Oct 13
Waxing Gibbous
Oct 18
Full
Oct 26
Last Quarter
Nov 3
New
Nov 9
First Quarter

Hourly Weather History & Observations

Time (AKDT) Temp. Windchill Dew Point Humidity Pressure Visibility Wind Dir Wind Speed Gust Speed Precip Events Conditions
12:16 AM 23.0 °F 17.0 °F 19.4 °F 86% 29.82 in 10.0 mi East 4.6 mph - N/A   Clear
12:36 AM 21.2 °F 13.6 °F 19.4 °F 93% 29.82 in 10.0 mi East 5.8 mph - N/A   Clear
12:56 AM 21.2 °F 13.6 °F 19.4 °F 93% 29.82 in 10.0 mi East 5.8 mph - N/A   Clear
1:16 AM 19.4 °F - 17.6 °F 93% 29.83 in 10.0 mi Calm Calm - N/A   Clear
1:36 AM 17.6 °F 10.7 °F 15.8 °F 93% 29.83 in 10.0 mi WNW 4.6 mph - N/A   Clear
1:56 AM 19.4 °F - 19.4 °F 100% 29.84 in 10.0 mi Calm Calm - N/A   Clear
2:16 AM 23.0 °F 17.0 °F 19.4 °F 86% 29.83 in 10.0 mi NE 4.6 mph - N/A   Clear
2:36 AM 19.4 °F 14.3 °F 15.8 °F 86% 29.83 in 10.0 mi ENE 3.5 mph - N/A   Clear
2:56 AM 17.6 °F 9.3 °F 17.6 °F 100% 29.83 in 10.0 mi NNE 5.8 mph - N/A   Clear
3:16 AM 17.6 °F 9.3 °F 17.6 °F 100% 29.83 in 10.0 mi NNE 5.8 mph - N/A   Clear
3:36 AM 15.8 °F 7.2 °F 15.8 °F 100% 29.81 in 10.0 mi NE 5.8 mph - N/A   Clear
3:56 AM 15.8 °F 8.6 °F 15.8 °F 100% 29.82 in 10.0 mi ESE 4.6 mph - N/A   Clear
4:16 AM 15.8 °F - 15.8 °F 100% 29.82 in 10.0 mi Calm Calm - N/A   Clear
4:36 AM 15.8 °F 8.6 °F 15.8 °F 100% 29.80 in 10.0 mi East 4.6 mph - N/A   Clear
4:56 AM 15.8 °F 6.1 °F 15.8 °F 100% 29.80 in 10.0 mi ENE 6.9 mph - N/A   Clear
5:16 AM 17.6 °F 10.7 °F 14.0 °F 86% 29.80 in 10.0 mi ENE 4.6 mph - N/A   Clear
5:36 AM 17.6 °F 8.2 °F 15.8 °F 93% 29.79 in 10.0 mi East 6.9 mph - N/A   Clear
5:56 AM 19.4 °F 7.9 °F 15.8 °F 86% 29.78 in 10.0 mi East 10.4 mph - N/A   Clear
6:16 AM 17.6 °F 7.3 °F 15.8 °F 93% 29.78 in 10.0 mi East 8.1 mph - N/A   Clear
6:36 AM 17.6 °F 10.7 °F 17.6 °F 100% 29.79 in 10.0 mi East 4.6 mph - N/A   Clear
6:56 AM 15.8 °F 7.2 °F 12.2 °F 86% 29.79 in 10.0 mi NE 5.8 mph - N/A   Clear
7:16 AM 17.6 °F 10.7 °F 12.2 °F 79% 29.79 in 10.0 mi East 4.6 mph - N/A   Clear
7:36 AM 17.6 °F 8.2 °F 12.2 °F 79% 29.77 in 10.0 mi ENE 6.9 mph - N/A   Clear
7:56 AM 17.6 °F 9.3 °F 10.4 °F 73% 29.78 in 10.0 mi ENE 5.8 mph - N/A   Clear
8:16 AM 17.6 °F 8.2 °F 12.2 °F 79% 29.78 in 10.0 mi NE 6.9 mph - N/A   Clear
8:36 AM 15.8 °F 5.1 °F 12.2 °F 86% 29.76 in 10.0 mi NNE 8.1 mph - N/A   Clear
8:56 AM 17.6 °F 9.3 °F 15.8 °F 93% 29.75 in 10.0 mi East 5.8 mph - N/A   Clear
9:16 AM 17.6 °F 10.7 °F 17.6 °F 100% 29.75 in 10.0 mi East 4.6 mph - N/A   Clear
9:36 AM 19.4 °F 9.5 °F 19.4 °F 100% 29.74 in 10.0 mi East 8.1 mph - N/A   Clear
9:56 AM 19.4 °F 7.2 °F 19.4 °F 100% 29.72 in 10.0 mi ENE 11.5 mph - N/A   Clear
10:16 AM 21.2 °F 12.6 °F 21.2 °F 100% 29.73 in 10.0 mi East 6.9 mph - N/A   Clear
10:36 AM 21.2 °F 10.1 °F 21.2 °F 100% 29.71 in 10.0 mi ENE 10.4 mph - N/A   Clear
10:56 AM 21.2 °F 10.1 °F 19.4 °F 93% 29.70 in 10.0 mi ENE 10.4 mph - N/A   Clear
11:16 AM 23.0 °F 12.4 °F 23.0 °F 100% 29.69 in 10.0 mi East 10.4 mph - N/A   Clear
11:36 AM 24.8 °F 14.0 °F 24.8 °F 100% 29.69 in 10.0 mi ENE 11.5 mph - N/A   Clear
11:56 AM 24.8 °F 16.1 °F 21.2 °F 86% 29.69 in 10.0 mi ENE 8.1 mph - N/A   Clear
12:16 PM 26.6 °F 17.5 °F 21.2 °F 80% 29.69 in 10.0 mi East 9.2 mph - N/A   Clear
12:36 PM 26.6 °F 17.5 °F 21.2 °F 80% 29.68 in 10.0 mi ENE 9.2 mph - N/A   Clear
12:56 PM 26.6 °F 17.5 °F 21.2 °F 80% 29.67 in 10.0 mi NE 9.2 mph - N/A   Clear
1:16 PM 26.6 °F 15.7 °F 23.0 °F 86% 29.66 in 10.0 mi ENE 12.7 mph - N/A   Clear
1:36 PM 28.4 °F 19.7 °F 21.2 °F 74% 29.66 in 10.0 mi ENE 9.2 mph - N/A   Clear
1:56 PM 28.4 °F 21.2 °F 21.2 °F 74% 29.64 in 10.0 mi NNE 6.9 mph - N/A   Clear
2:16 PM 28.4 °F 19.7 °F 24.8 °F 86% 29.63 in 10.0 mi ENE 9.2 mph - N/A   Clear
2:36 PM 30.2 °F 23.4 °F 23.0 °F 75% 29.63 in 10.0 mi East 6.9 mph - N/A   Clear
2:56 PM 30.2 °F 23.4 °F 23.0 °F 75% 29.62 in 10.0 mi ENE 6.9 mph - N/A   Clear
3:16 PM 30.2 °F 21.9 °F 23.0 °F 75% 29.60 in 10.0 mi ENE 9.2 mph - N/A   Clear
3:36 PM 32.0 °F 24.8 °F 24.8 °F 75% 29.59 in 10.0 mi NE 8.1 mph - N/A   Mostly Cloudy
3:56 PM 32.0 °F 24.8 °F 24.8 °F 75% 29.58 in 10.0 mi ENE 8.1 mph - N/A   Scattered Clouds
4:16 PM 33.8 °F 27.7 °F 24.8 °F 70% 29.57 in 10.0 mi ENE 6.9 mph - N/A   Partly Cloudy
4:36 PM 33.8 °F 27.7 °F 24.8 °F 70% 29.57 in 10.0 mi ENE 6.9 mph - N/A   Mostly Cloudy
4:56 PM 33.8 °F 27.0 °F 26.6 °F 75% 29.56 in 10.0 mi East 8.1 mph - N/A   Mostly Cloudy
5:16 PM 33.8 °F 30.8 °F 24.8 °F 70% 29.56 in 10.0 mi ENE 3.5 mph - N/A   Scattered Clouds
5:36 PM 30.2 °F 24.3 °F 24.8 °F 80% 29.55 in 10.0 mi ESE 5.8 mph - N/A   Partly Cloudy
5:56 PM 30.2 °F 24.3 °F 23.0 °F 75% 29.55 in 10.0 mi East 5.8 mph - N/A   Partly Cloudy
6:16 PM 32.0 °F 26.4 °F 24.8 °F 75% 29.54 in 10.0 mi NE 5.8 mph - N/A   Clear
6:36 PM 32.0 °F 25.6 °F 24.8 °F 75% 29.52 in 10.0 mi NE 6.9 mph - N/A   Mostly Cloudy
6:56 PM 32.0 °F 27.5 °F 24.8 °F 75% 29.52 in 10.0 mi NE 4.6 mph - N/A   Overcast
7:16 PM 30.2 °F - 24.8 °F 80% 29.52 in 10.0 mi Calm Calm - N/A   Scattered Clouds
7:36 PM 30.2 °F 25.4 °F 24.8 °F 80% 29.50 in 10.0 mi NE 4.6 mph - N/A   Scattered Clouds
7:56 PM 30.2 °F - 24.8 °F 80% 29.49 in 10.0 mi Calm Calm - N/A   Mostly Cloudy
8:16 PM 30.2 °F 24.3 °F 24.8 °F 80% 29.48 in 10.0 mi ENE 5.8 mph - N/A   Overcast
8:36 PM 30.2 °F 22.6 °F 24.8 °F 80% 29.47 in 10.0 mi NE 8.1 mph - N/A   Overcast
8:56 PM 30.2 °F 23.4 °F 24.8 °F 80% 29.45 in 10.0 mi NE 6.9 mph - N/A   Overcast
9:16 PM 30.2 °F 23.4 °F 24.8 °F 80% 29.45 in 10.0 mi East 6.9 mph - N/A   Overcast
9:36 PM 30.2 °F 22.6 °F 24.8 °F 80% 29.45 in 10.0 mi ENE 8.1 mph - N/A   Overcast
9:56 PM 30.2 °F 25.4 °F 26.6 °F 86% 29.44 in 3.0 mi ENE 4.6 mph - N/A   Overcast
10:16 PM 30.2 °F 25.4 °F 28.4 °F 93% 29.44 in 3.0 mi NE 4.6 mph - N/A   Overcast
10:36 PM 30.2 °F 25.4 °F 28.4 °F 93% 29.43 in 4.0 mi NE 4.6 mph - N/A   Overcast
10:56 PM 30.2 °F 25.4 °F 28.4 °F 93% 29.44 in 7.0 mi SSE 4.6 mph - N/A   Overcast
11:16 PM 30.2 °F 26.7 °F 28.4 °F 93% 29.46 in 0.8 mi SW 3.5 mph - N/A   Overcast
11:36 PM 30.2 °F - 30.2 °F 100% 29.45 in 1.0 mi Calm Calm - 0.02 in   Overcast
11:56 PM 30.2 °F 23.4 °F 30.2 °F 100% 29.43 in 1.8 mi North 6.9 mph - 0.03 in   Overcast